RYR77L EPGD-LIPQ

Flight info

Callsign RYR77L
Flight time N/A
Altitude 39000
Route IRLUN N133 POLON/N0429F380 DCT UPKIS/N0433F390 T720 REGLI DCT VALPI DCT NIT/N0437F400 DCT ABLOM DCT NIGSI DCT ABIRI DCT NAKUM DCT TIBRO
Aircraft B736/M-SDE2E3FGHIRWXY/LB1

Departure

Time N/A
Airport Gdańsk Lech Wałęsa Airport (EPGD)

Arrival

Time 2026-05-01 13:36
Airport Trieste Airport (LIPQ)
Time Latitude Longitude Altitude Speed Heading
2026-05-01 12:04 53.92765 18.49738 27249 ft 426 kts 154°
2026-05-01 12:04 53.89989 18.51587 27898 ft 430 kts 154°
2026-05-01 12:05 53.87230 18.53423 28516 ft 434 kts 154°
2026-05-01 12:05 53.81556 18.57195 29767 ft 441 kts 154°
2026-05-01 12:05 53.78688 18.59108 30362 ft 445 kts 154°
2026-05-01 12:06 53.75794 18.61038 30844 ft 449 kts 154°
2026-05-01 12:06 53.72886 18.63025 31274 ft 453 kts 153°
2026-05-01 12:06 53.69982 18.65120 31697 ft 456 kts 152°
2026-05-01 12:06 53.67059 18.67269 32112 ft 460 kts 152°
2026-05-01 12:07 53.64150 18.69405 32509 ft 464 kts 152°
2026-05-01 12:07 53.61184 18.71565 32914 ft 467 kts 153°
2026-05-01 12:07 53.58194 18.73724 33416 ft 467 kts 153°
2026-05-01 12:07 53.55213 18.75865 33975 ft 465 kts 153°
2026-05-01 12:08 53.52238 18.77988 34475 ft 466 kts 154°
2026-05-01 12:08 53.49183 18.79844 34883 ft 468 kts 158°
2026-05-01 12:08 53.46076 18.81495 35325 ft 467 kts 160°
2026-05-01 12:08 53.42973 18.83068 35782 ft 466 kts 160°
2026-05-01 12:09 53.39869 18.84637 36217 ft 465 kts 160°
2026-05-01 12:09 53.36818 18.86202 36607 ft 464 kts 160°
2026-05-01 12:09 53.33740 18.87805 37011 ft 464 kts 160°
2026-05-01 12:09 53.30662 18.89422 37412 ft 463 kts 160°
2026-05-01 12:10 53.27594 18.91039 37801 ft 462 kts 160°
2026-05-01 12:10 53.21473 18.94257 38566 ft 461 kts 160°
2026-05-01 12:10 53.18418 18.95854 38940 ft 460 kts 160°
2026-05-01 12:11 53.16312 18.96945 39143 ft 460 kts 160°
2026-05-01 12:11 53.13298 18.98496 39345 ft 460 kts 160°
2026-05-01 12:11 53.10229 19.00072 39326 ft 463 kts 160°
2026-05-01 12:12 53.04085 19.03237 39335 ft 460 kts 160°
2026-05-01 12:12 52.97984 19.06392 39335 ft 458 kts 160°
2026-05-01 12:13 52.91916 19.09523 39333 ft 456 kts 160°
2026-05-01 12:13 52.86683 19.12214 39338 ft 455 kts 160°
2026-05-01 12:14 52.85275 19.12936 39335 ft 455 kts 160°
2026-05-01 12:14 52.79226 19.16035 39332 ft 456 kts 160°
2026-05-01 12:15 52.73158 19.19135 39332 ft 457 kts 160°
2026-05-01 12:15 52.67123 19.22208 39329 ft 458 kts 160°
2026-05-01 12:16 52.61027 19.25305 39333 ft 459 kts 160°
2026-05-01 12:16 52.54915 19.28399 39332 ft 460 kts 160°
2026-05-01 12:17 52.48780 19.31491 39329 ft 461 kts 160°
2026-05-01 12:17 52.42638 19.34579 39327 ft 462 kts 160°
2026-05-01 12:18 52.36526 19.37643 39328 ft 463 kts 160°
2026-05-01 12:18 52.30367 19.40723 39321 ft 463 kts 160°
2026-05-01 12:19 52.24211 19.43793 39323 ft 463 kts 160°
2026-05-01 12:19 52.18093 19.46835 39326 ft 462 kts 160°
2026-05-01 12:20 52.11943 19.49886 39321 ft 462 kts 159°
2026-05-01 12:20 52.05798 19.52923 39316 ft 462 kts 159°
2026-05-01 12:21 51.99653 19.55952 39324 ft 461 kts 159°
2026-05-01 12:21 51.93554 19.58953 39319 ft 461 kts 159°
2026-05-01 12:22 51.87426 19.61959 39320 ft 460 kts 159°
2026-05-01 12:22 51.81133 19.63772 39325 ft 467 kts 185°
2026-05-01 12:23 51.77982 19.62649 39215 ft 462 kts 200°
2026-05-01 12:23 51.75166 19.60205 38648 ft 460 kts 217°
2026-05-01 12:23 51.72596 19.57169 38395 ft 456 kts 218°
2026-05-01 12:23 51.70087 19.54114 38366 ft 462 kts 218°
2026-05-01 12:24 51.64860 19.47749 38328 ft 477 kts 218°
2026-05-01 12:24 51.59520 19.41377 38304 ft 477 kts 217°
2026-05-01 12:25 51.51547 19.32017 38318 ft 472 kts 217°
2026-05-01 12:26 51.46270 19.25855 38329 ft 472 kts 217°
2026-05-01 12:26 51.38300 19.16574 38330 ft 472 kts 217°
2026-05-01 12:27 51.30315 19.07313 38329 ft 473 kts 217°
2026-05-01 12:28 51.22352 18.98118 38330 ft 473 kts 217°
2026-05-01 12:29 51.14336 18.88902 38331 ft 474 kts 216°
2026-05-01 12:29 51.06338 18.79747 38333 ft 474 kts 216°
2026-05-01 12:30 50.98292 18.70577 38330 ft 475 kts 216°
2026-05-01 12:31 50.92926 18.64485 38337 ft 474 kts 216°
2026-05-01 12:31 50.87560 18.58409 38328 ft 474 kts 216°
2026-05-01 12:32 50.82228 18.52389 38337 ft 474 kts 216°
2026-05-01 12:32 50.74168 18.43322 38331 ft 474 kts 216°
2026-05-01 12:33 50.68803 18.37308 38337 ft 473 kts 216°
2026-05-01 12:33 50.63446 18.31320 38771 ft 475 kts 216°
2026-05-01 12:34 50.60758 18.28322 39189 ft 472 kts 216°
2026-05-01 12:34 50.58081 18.25341 39335 ft 474 kts 216°
2026-05-01 12:34 50.52699 18.19358 39325 ft 472 kts 216°
2026-05-01 12:35 50.47346 18.13424 39339 ft 469 kts 216°
2026-05-01 12:35 50.42058 18.07577 39339 ft 467 kts 216°
2026-05-01 12:36 50.36600 18.02098 39326 ft 466 kts 202°
2026-05-01 12:36 50.30387 17.99607 39347 ft 460 kts 180°
2026-05-01 12:37 50.24011 17.99592 39346 ft 459 kts 176°
2026-05-01 12:37 50.17646 17.99681 39348 ft 461 kts 177°
2026-05-01 12:38 50.11217 17.99663 39344 ft 463 kts 177°
2026-05-01 12:38 50.04754 17.99612 39347 ft 465 kts 177°
2026-05-01 12:39 49.98264 17.99461 39351 ft 467 kts 179°
2026-05-01 12:39 49.91801 17.99129 39342 ft 469 kts 179°
2026-05-01 12:40 49.85276 17.98787 39346 ft 469 kts 179°
2026-05-01 12:40 49.78747 17.98471 39352 ft 469 kts 179°
2026-05-01 12:41 49.72223 17.98169 39343 ft 469 kts 179°
2026-05-01 12:41 49.65750 17.97872 39348 ft 468 kts 179°
2026-05-01 12:42 49.59245 17.97574 39350 ft 467 kts 179°
2026-05-01 12:42 49.52742 17.97276 39342 ft 467 kts 179°
2026-05-01 12:43 49.46255 17.96979 39349 ft 466 kts 179°
2026-05-01 12:43 49.39772 17.96685 39351 ft 466 kts 178°
2026-05-01 12:44 49.33333 17.96391 39350 ft 466 kts 178°
2026-05-01 12:45 49.20357 17.95804 39352 ft 467 kts 178°
2026-05-01 12:45 49.13906 17.95513 39344 ft 467 kts 178°
2026-05-01 12:46 49.07408 17.95220 39353 ft 467 kts 178°
2026-05-01 12:46 49.00907 17.95083 39342 ft 466 kts 173°
2026-05-01 12:47 48.94469 17.95939 39350 ft 465 kts 170°
2026-05-01 12:47 48.88077 17.96950 39347 ft 465 kts 170°
2026-05-01 12:48 48.81637 17.97901 39352 ft 465 kts 171°
2026-05-01 12:48 48.75179 17.98800 39352 ft 466 kts 171°
2026-05-01 12:49 48.68719 17.99686 39357 ft 466 kts 171°
2026-05-01 12:49 48.62300 18.00566 39347 ft 466 kts 171°
2026-05-01 12:50 48.55837 18.01453 39350 ft 466 kts 171°
2026-05-01 12:50 48.49371 18.02339 39349 ft 467 kts 171°
2026-05-01 12:51 48.42906 18.03222 39349 ft 467 kts 171°
2026-05-01 12:52 48.33241 18.03067 39355 ft 475 kts 199°
2026-05-01 12:52 48.27927 17.97319 39429 ft 477 kts 234°
2026-05-01 12:52 48.26238 17.93082 39628 ft 471 kts 252°
2026-05-01 12:53 48.24126 17.83911 40328 ft 463 kts 256°
2026-05-01 12:53 48.23128 17.79290 40323 ft 468 kts 256°
2026-05-01 12:54 48.21078 17.70013 40340 ft 469 kts 255°
2026-05-01 12:54 48.17911 17.56232 40340 ft 467 kts 254°
2026-05-01 12:55 48.14708 17.42475 40342 ft 466 kts 254°
2026-05-01 12:56 48.12588 17.33399 40344 ft 465 kts 254°
2026-05-01 12:56 48.10450 17.24278 40349 ft 464 kts 254°
2026-05-01 12:57 48.08305 17.15170 40345 ft 464 kts 254°
2026-05-01 12:57 48.05286 17.06591 40348 ft 471 kts 235°
2026-05-01 12:57 48.03143 17.02884 40355 ft 472 kts 227°
2026-05-01 12:58 47.98542 16.95951 40356 ft 474 kts 226°
2026-05-01 12:59 47.91558 16.85510 40355 ft 474 kts 227°
2026-05-01 12:59 47.84616 16.74984 40356 ft 475 kts 227°
2026-05-01 13:00 47.77701 16.64508 40367 ft 476 kts 227°
2026-05-01 13:01 47.70728 16.53998 40364 ft 476 kts 227°
2026-05-01 13:02 47.63730 16.43493 40355 ft 477 kts 226°
2026-05-01 13:07 47.14987 15.64507 39936 ft 476 kts 232°
2026-05-01 13:07 47.12879 15.60776 39469 ft 473 kts 232°
2026-05-01 13:08 47.10812 15.57127 39545 ft 457 kts 232°
2026-05-01 13:08 47.06721 15.49908 39634 ft 465 kts 232°
2026-05-01 13:08 47.04684 15.46318 39523 ft 462 kts 232°
2026-05-01 13:09 47.02631 15.42708 39022 ft 461 kts 232°
2026-05-01 13:09 47.00569 15.39084 38131 ft 467 kts 232°
2026-05-01 13:09 46.98470 15.35399 37187 ft 474 kts 232°
2026-05-01 13:09 46.96348 15.31680 36476 ft 476 kts 232°
2026-05-01 13:10 46.94228 15.27972 35987 ft 473 kts 231°
2026-05-01 13:10 46.92129 15.24307 35577 ft 468 kts 231°
2026-05-01 13:10 46.90072 15.20719 35142 ft 464 kts 231°
2026-05-01 13:10 46.88006 15.17120 34673 ft 462 kts 231°
2026-05-01 13:11 46.85941 15.13524 34173 ft 461 kts 231°
2026-05-01 13:11 46.83885 15.09948 33686 ft 458 kts 231°
2026-05-01 13:11 46.81845 15.06405 33263 ft 454 kts 231°
2026-05-01 13:11 46.79818 15.02892 32846 ft 450 kts 231°
2026-05-01 13:12 46.77984 14.99250 32411 ft 444 kts 243°
2026-05-01 13:12 46.76684 14.95210 31985 ft 435 kts 254°
2026-05-01 13:12 46.75889 14.91025 31611 ft 424 kts 265°
2026-05-01 13:12 46.75579 14.86841 31168 ft 418 kts 271°
2026-05-01 13:13 46.75355 14.82624 30731 ft 416 kts 271°
2026-05-01 13:13 46.75141 14.78432 30349 ft 413 kts 271°
2026-05-01 13:13 46.74922 14.74339 29966 ft 409 kts 271°
2026-05-01 13:13 46.74688 14.70223 29503 ft 406 kts 270°
2026-05-01 13:14 46.74445 14.66133 28977 ft 405 kts 270°
2026-05-01 13:14 46.74197 14.62053 28473 ft 403 kts 270°
2026-05-01 13:14 46.73945 14.57999 28041 ft 400 kts 270°
2026-05-01 13:14 46.73693 14.53971 27618 ft 397 kts 270°
2026-05-01 13:15 46.73444 14.49979 27215 ft 395 kts 270°
2026-05-01 13:15 46.73198 14.46058 26797 ft 393 kts 270°
2026-05-01 13:15 46.72947 14.42105 26393 ft 391 kts 269°
2026-05-01 13:15 46.72586 14.38184 25964 ft 393 kts 260°
2026-05-01 13:16 46.71680 14.34410 25568 ft 396 kts 247°
2026-05-01 13:16 46.70273 14.30976 25194 ft 396 kts 234°
2026-05-01 13:16 46.68553 14.27866 24838 ft 393 kts 231°
2026-05-01 13:17 46.63303 14.18886 23655 ft 387 kts 230°
2026-05-01 13:17 46.61572 14.15910 23283 ft 383 kts 230°
2026-05-01 13:18 46.58169 14.10014 22476 ft 378 kts 231°
2026-05-01 13:18 46.56485 14.07086 22071 ft 376 kts 231°
2026-05-01 13:18 46.54817 14.04182 21690 ft 373 kts 231°
2026-05-01 13:18 46.53160 14.01302 21333 ft 370 kts 231°
2026-05-01 13:19 46.51514 13.98441 21025 ft 366 kts 231°
2026-05-01 13:19 46.49907 13.95651 20675 ft 365 kts 231°
2026-05-01 13:19 46.46666 13.90035 19871 ft 360 kts 231°
2026-05-01 13:20 46.45059 13.87254 19543 ft 358 kts 231°
2026-05-01 13:20 46.43464 13.84495 19138 ft 357 kts 231°
2026-05-01 13:20 46.41864 13.81731 18657 ft 358 kts 231°
2026-05-01 13:21 46.38705 13.76284 17994 ft 350 kts 231°
2026-05-01 13:21 46.37153 13.73609 17535 ft 351 kts 231°
2026-05-01 13:21 46.35591 13.70921 17227 ft 347 kts 231°
2026-05-01 13:21 46.34043 13.68261 16874 ft 344 kts 231°
2026-05-01 13:22 46.32504 13.65618 16528 ft 342 kts 230°
2026-05-01 13:22 46.30975 13.62996 16221 ft 340 kts 231°
2026-05-01 13:22 46.29452 13.60384 15801 ft 340 kts 231°
2026-05-01 13:22 46.27926 13.57769 15412 ft 339 kts 231°
2026-05-01 13:23 46.26407 13.55169 15077 ft 337 kts 231°
2026-05-01 13:23 46.24923 13.52633 14645 ft 334 kts 230°
2026-05-01 13:23 46.23416 13.50061 14250 ft 335 kts 231°
2026-05-01 13:23 46.21702 13.47818 13907 ft 333 kts 211°
2026-05-01 13:24 46.19602 13.46543 13640 ft 324 kts 191°
2026-05-01 13:24 46.17406 13.45869 13276 ft 323 kts 187°
2026-05-01 13:24 46.15204 13.45283 12903 ft 321 kts 188°
2026-05-01 13:25 46.10849 13.44111 12199 ft 316 kts 188°
2026-05-01 13:25 46.08834 13.43550 11858 ft 315 kts 188°
2026-05-01 13:25 46.06723 13.42950 11565 ft 312 kts 188°
2026-05-01 13:25 46.04602 13.42342 11227 ft 310 kts 188°
2026-05-01 13:26 46.02496 13.41737 10947 ft 307 kts 188°
2026-05-01 13:26 46.00414 13.41138 10681 ft 303 kts 188°
2026-05-01 13:26 45.98357 13.40538 10408 ft 300 kts 188°
2026-05-01 13:26 45.96315 13.39941 10093 ft 298 kts 188°
2026-05-01 13:27 45.94288 13.39350 9755 ft 296 kts 188°
2026-05-01 13:27 45.92302 13.38770 9469 ft 294 kts 188°
2026-05-01 13:27 45.88321 13.37608 8862 ft 290 kts 189°
2026-05-01 13:28 45.84393 13.36467 8253 ft 286 kts 189°
2026-05-01 13:28 45.82441 13.35956 7948 ft 283 kts 183°
2026-05-01 13:29 45.78540 13.35878 7389 ft 278 kts 178°
2026-05-01 13:29 45.75295 13.33573 7175 ft 265 kts 237°
2026-05-01 13:30 45.74667 13.23795 6390 ft 236 kts 295°
2026-05-01 13:31 45.76812 13.20871 6074 ft 209 kts 345°
2026-05-01 13:31 45.81043 13.20662 5456 ft 199 kts 19°
2026-05-01 13:32 45.82805 13.23356 4901 ft 195 kts 77°
2026-05-01 13:33 45.82893 13.28837 4212 ft 171 kts 89°
2026-05-01 13:33 45.82863 13.32034 3730 ft 149 kts 89°
2026-05-01 13:34 45.82845 13.34870 3049 ft 141 kts 89°
2026-05-01 13:34 45.82831 13.37671 2256 ft 142 kts 90°
2026-05-01 13:35 45.82826 13.40622 1161 ft 155 kts 89°
2026-05-01 13:35 45.82846 13.42172 675 ft 154 kts 89°
2026-05-01 13:35 45.82805 13.45050 62 ft 133 kts 91°
2026-05-01 13:36 45.82784 13.46212 45 ft 91 kts 91°
2026-05-01 13:36 45.82779 13.46667 45 ft 22 kts 90°
2026-05-01 13:36 45.82677 13.46797 46 ft 2 kts 171°
2026-05-01 13:37 45.82662 13.46800 46 ft 2 kts 171°
2026-05-01 13:37 45.82648 13.46804 43 ft 4 kts 169°
2026-05-01 13:37 45.82615 13.46881 46 ft 11 kts 94°
2026-05-01 13:37 45.82615 13.47015 46 ft 16 kts 90°
2026-05-01 13:38 45.82616 13.47407 46 ft 16 kts 91°
2026-05-01 13:38 45.82613 13.47568 46 ft 15 kts 91°
2026-05-01 13:38 45.82612 13.47714 46 ft 13 kts 93°
2026-05-01 13:39 45.82578 13.47849 44 ft 16 kts 121°
2026-05-01 13:39 45.82497 13.47968 46 ft 18 kts 140°
2026-05-01 13:39 45.82399 13.48087 46 ft 19 kts 139°
2026-05-01 13:39 45.82317 13.48190 46 ft 14 kts 140°
2026-05-01 13:40 45.82266 13.48258 46 ft 7 kts 119°
2026-05-01 13:40 45.82261 13.48330 46 ft 7 kts 81°
2026-05-01 13:40 45.82269 13.48400 46 ft 7 kts 79°
2026-05-01 13:40 45.82274 13.48453 46 ft 5 kts 98°
2026-05-01 13:41 45.82246 13.48478 46 ft 5 kts 163°
2026-05-01 13:41 45.82228 13.48483 46 ft 1 kts 171°
2026-05-01 13:41 45.82219 13.48485 46 ft 1 kts 171°
2026-05-01 13:41 45.82216 13.48486 46 ft 0 kts 171°